| time (UTC) | temp C | wind direction | speed KPH | gust KPH | rain 1hr cm | rain 24hr cm | rain mn cm | humidity % | barometer mb |
| 20260510185533 | 19 | 193 | 4.8 | 9.7 | 0.00 | 0.00 | 0.00 | 72 | 1013.9 |
| 20260510185028 | 19 | 193 | 3.2 | 9.7 | 0.00 | 0.00 | 0.00 | 71 | 1013.9 |
| 20260510184545 | 19 | 232 | 3.2 | 8.0 | 0.00 | 0.00 | 0.00 | 68 | 1013.8 |
| 20260510184044 | 20 | 232 | 4.8 | 8.0 | 0.00 | 0.00 | 0.00 | 69 | 1013.8 |
| 20260510183541 | 20 | 259 | 1.6 | 8.0 | 0.00 | 0.00 | 0.00 | 68 | 1013.7 |
| 20260510183038 | 20 | 259 | 3.2 | 8.0 | 0.00 | 0.00 | 0.00 | 68 | 1013.5 |
| 20260510182530 | 20 | 235 | 1.6 | 4.8 | 0.00 | 0.00 | 0.00 | 68 | 1013.3 |
| 20260510182026 | 20 | 235 | 1.6 | 4.8 | 0.00 | 0.00 | 0.00 | 67 | 1013.4 |
| 20260510181543 | 20 | 235 | 3.2 | 6.4 | 0.00 | 0.00 | 0.00 | 66 | 1013.3 |
| 20260510181043 | 20 | 235 | 3.2 | 6.4 | 0.00 | 0.00 | 0.00 | 67 | 1013.3 |
| 20260510180540 | 20 | 163 | 0.0 | 4.8 | 0.00 | 0.00 | 0.00 | 65 | 1013.1 |
| 20260510180041 | 20 | 163 | 1.6 | 6.4 | 0.00 | 0.00 | 0.00 | 67 | 1013.1 |
| 20260510175542 | 20 | 150 | 3.2 | 8.0 | 0.00 | 0.00 | 0.00 | 68 | 1013.2 |
| 20260510175036 | 20 | 194 | 3.2 | 8.0 | 0.00 | 0.00 | 0.00 | 69 | 1013.2 |
| 20260510174528 | 20 | 194 | 4.8 | 8.0 | 0.00 | 0.00 | 0.00 | 68 | 1013.2 |
| 20260510174047 | 19 | 194 | 6.4 | 8.0 | 0.00 | 0.00 | 0.00 | 69 | 1013.3 |
| 20260510173544 | 19 | 194 | 3.2 | 6.4 | 0.00 | 0.00 | 0.00 | 69 | 1013.4 |
| 20260510173043 | 19 | 194 | 4.8 | 8.0 | 0.00 | 0.00 | 0.00 | 68 | 1013.5 |
| 20260510172535 | 20 | 194 | 4.8 | 8.0 | 0.00 | 0.00 | 0.00 | 66 | 1013.5 |
| 20260510172029 | 20 | 194 | 4.8 | 8.0 | 0.00 | 0.00 | 0.00 | 67 | 1013.5 |
| 20260510171546 | 20 | 204 | 3.2 | 6.4 | 0.00 | 0.00 | 0.00 | 67 | 1013.5 |
| 20260510171044 | 20 | 210 | 1.6 | 8.0 | 0.00 | 0.00 | 0.00 | 69 | 1013.7 |
| 20260510170543 | 20 | 195 | 6.4 | 8.0 | 0.00 | 0.00 | 0.00 | 65 | 1013.5 |
| 20260510170045 | 20 | 186 | 3.2 | 6.4 | 0.00 | 0.00 | 0.00 | 64 | 1013.5 |
| 20260510165544 | 20 | 186 | 4.8 | 6.4 | 0.00 | 0.00 | 0.00 | 66 | 1013.5 |
| 20260510165104 | 20 | 186 | 3.2 | 6.4 | 0.00 | 0.00 | 0.00 | 65 | 1013.7 |
| 20260510164540 | 20 | 182 | 3.2 | 4.8 | 0.00 | 0.00 | 0.00 | 66 | 1013.7 |
| 20260510164039 | 20 | 182 | 1.6 | 8.0 | 0.00 | 0.00 | 0.00 | 68 | 1013.6 |
| 20260510163531 | 20 | 182 | 1.6 | 8.0 | 0.00 | 0.00 | 0.00 | 66 | 1013.7 |
| 20260510163028 | 20 | 154 | 4.8 | 8.0 | 0.00 | 0.00 | 0.00 | 68 | 1013.4 |
| 20260510162604 | 19 | 204 | 3.2 | 8.0 | 0.00 | 0.00 | 0.00 | 67 | 1013.5 |
| 20260510162032 | 19 | 201 | 6.4 | 8.0 | 0.00 | 0.00 | 0.00 | 69 | 1013.7 |
| 20260510161528 | 19 | 211 | 3.2 | 6.4 | 0.00 | 0.00 | 0.00 | 69 | 1013.9 |
| 20260510161050 | 19 | 213 | 1.6 | 6.4 | 0.00 | 0.00 | 0.00 | 69 | 1013.7 |
| 20260510160547 | 19 | 204 | 4.8 | 6.4 | 0.00 | 0.00 | 0.00 | 66 | 1013.6 |
| 20260510160044 | 19 | 228 | 3.2 | 11.3 | 0.00 | 0.00 | 0.00 | 70 | 1013.7 |
| 20260510155537 | 19 | 220 | 3.2 | 11.3 | 0.00 | 0.05 | 0.00 | 68 | 1013.7 |
| 20260510155026 | 19 | 249 | 4.8 | 11.3 | 0.00 | 0.05 | 0.00 | 67 | 1013.7 |
| 20260510154543 | 19 | 275 | 4.8 | 11.3 | 0.00 | 0.05 | 0.00 | 69 | 1013.7 |
| 20260510154043 | 19 | 221 | 3.2 | 11.3 | 0.00 | 0.05 | 0.00 | 69 | 1013.8 |
| 20260510153540 | 19 | 173 | 3.2 | 8.0 | 0.00 | 0.05 | 0.00 | 69 | 1013.8 |
| 20260510153100 | 19 | 279 | 4.8 | 8.0 | 0.00 | 0.05 | 0.00 | 68 | 1013.8 |
| 20260510152530 | 19 | 252 | 3.2 | 16.1 | 0.00 | 0.05 | 0.00 | 68 | 1013.8 |
| 20260510152027 | 19 | 221 | 4.8 | 16.1 | 0.00 | 0.05 | 0.00 | 68 | 1013.9 |
| 20260510151540 | 19 | 248 | 11.3 | 16.1 | 0.00 | 0.05 | 0.00 | 68 | 1013.9 |
| 20260510151036 | 19 | 274 | 3.2 | 12.9 | 0.00 | 0.05 | 0.00 | 71 | 1013.8 |
| 20260510150554 | 18 | 242 | 3.2 | 8.0 | 0.00 | 0.05 | 0.00 | 72 | 1013.6 |
| 20260510150028 | 18 | 192 | 3.2 | 12.9 | 0.00 | 0.05 | 0.00 | 70 | 1013.6 |
| 20260510145544 | 18 | 246 | 4.8 | 12.9 | 0.00 | 0.38 | 0.00 | 72 | 1013.5 |
| 20260510145044 | 18 | 186 | 4.8 | 12.9 | 0.00 | 0.38 | 0.00 | 73 | 1013.5 |
| 20260510144534 | 18 | 239 | 3.2 | 16.1 | 0.00 | 0.38 | 0.00 | 74 | 1013.4 |
| 20260510144028 | 18 | 259 | 4.8 | 16.1 | 0.00 | 0.38 | 0.00 | 74 | 1013.2 |
| 20260510143539 | 17 | 240 | 3.2 | 8.0 | 0.00 | 0.38 | 0.00 | 75 | 1013.2 |
| 20260510143038 | 17 | 223 | 3.2 | 14.5 | 0.00 | 0.38 | 0.00 | 75 | 1013.2 |
| 20260510142532 | 17 | 200 | 9.7 | 14.5 | 0.00 | 0.38 | 0.00 | 75 | 1013.1 |
| 20260510142027 | 17 | 195 | 6.4 | 12.9 | 0.00 | 0.38 | 0.00 | 76 | 1012.9 |
| 20260510141604 | 17 | 175 | 6.4 | 12.9 | 0.00 | 0.38 | 0.00 | 77 | 1012.8 |
| 20260510141039 | 17 | 186 | 6.4 | 12.9 | 0.00 | 0.38 | 0.00 | 78 | 1012.8 |
| 20260510140541 | 16 | 194 | 3.2 | 11.3 | 0.00 | 0.38 | 0.00 | 80 | 1012.8 |
| 20260510140040 | 16 | 191 | 6.4 | 11.3 | 0.00 | 0.38 | 0.00 | 79 | 1012.7 |
| 20260510135539 | 16 | 168 | 8.0 | 11.3 | 0.00 | 0.48 | 0.00 | 80 | 1012.7 |
| 20260510135034 | 16 | 169 | 8.0 | 9.7 | 0.00 | 0.48 | 0.00 | 80 | 1012.8 |
| 20260510134527 | 16 | 217 | 3.2 | 11.3 | 0.00 | 0.48 | 0.00 | 80 | 1012.9 |
| 20260510134044 | 16 | 182 | 4.8 | 8.0 | 0.00 | 0.48 | 0.00 | 80 | 1012.9 |
| 20260510133539 | 16 | 243 | 3.2 | 8.0 | 0.00 | 0.48 | 0.00 | 81 | 1013.1 |
| 20260510133039 | 15 | 274 | 1.6 | 4.8 | 0.00 | 0.48 | 0.00 | 82 | 1013.1 |
| 20260510132533 | 15 | 274 | 1.6 | 4.8 | 0.00 | 0.48 | 0.00 | 82 | 1012.9 |
| 20260510132026 | 15 | 274 | 1.6 | 6.4 | 0.00 | 0.48 | 0.00 | 83 | 1012.9 |
| 20260510131543 | 15 | 274 | 3.2 | 6.4 | 0.00 | 0.48 | 0.00 | 83 | 1012.8 |
| 20260510131044 | 15 | 274 | 1.6 | 4.8 | 0.00 | 0.48 | 0.00 | 83 | 1012.8 |
| 20260510130535 | 15 | 274 | 1.6 | 4.8 | 0.00 | 0.48 | 0.00 | 84 | 1012.9 |
| 20260510130057 | 14 | 274 | 1.6 | 4.8 | 0.00 | 0.48 | 0.00 | 84 | 1012.8 |
| 20260510125530 | 14 | 274 | 1.6 | 4.8 | 0.00 | 0.48 | 0.00 | 85 | 1012.8 |
| 20260510125025 | 14 | 274 | 1.6 | 4.8 | 0.00 | 0.48 | 0.00 | 85 | 1012.8 |
| 20260510124539 | 13 | 274 | 0.0 | 4.8 | 0.00 | 0.48 | 0.00 | 85 | 1012.7 |
| 20260510124044 | 13 | 274 | 1.6 | 4.8 | 0.00 | 0.48 | 0.00 | 86 | 1012.6 |
| 20260510123544 | 13 | 274 | 0.0 | 3.2 | 0.00 | 0.48 | 0.00 | 86 | 1012.7 |
| 20260510123039 | 13 | 274 | 0.0 | 3.2 | 0.00 | 0.48 | 0.00 | 86 | 1012.6 |
| 20260510122533 | 13 | 274 | 1.6 | 1.6 | 0.00 | 0.48 | 0.00 | 86 | 1012.5 |
| 20260510122027 | 13 | 274 | 0.0 | 1.6 | 0.00 | 0.48 | 0.00 | 88 | 1012.4 |
| 20260510121603 | 13 | 274 | 0.0 | 1.6 | 0.00 | 0.48 | 0.00 | 88 | 1012.3 |
| 20260510121036 | 12 | 274 | 0.0 | 4.8 | 0.00 | 0.48 | 0.00 | 88 | 1012.4 |
| 20260510120527 | 12 | 274 | 1.6 | 4.8 | 0.00 | 0.48 | 0.00 | 88 | 1012.5 |
| 20260510120042 | 12 | 274 | 3.2 | 6.4 | 0.00 | 0.48 | 0.00 | 88 | 1012.5 |
| 20260510115535 | 12 | 274 | 1.6 | 6.4 | 0.00 | 0.51 | 0.00 | 88 | 1012.5 |
| 20260510115027 | 12 | 274 | 3.2 | 8.0 | 0.00 | 0.51 | 0.00 | 88 | 1012.6 |
| 20260510114543 | 12 | 249 | 3.2 | 11.3 | 0.00 | 0.51 | 0.00 | 88 | 1012.5 |
| 20260510114045 | 12 | 261 | 3.2 | 11.3 | 0.00 | 0.51 | 0.00 | 88 | 1012.5 |
| 20260510113534 | 12 | 246 | 4.8 | 11.3 | 0.00 | 0.51 | 0.00 | 88 | 1012.3 |
| 20260510113027 | 12 | 198 | 1.6 | 8.0 | 0.00 | 0.51 | 0.00 | 89 | 1012.1 |
| 20260510112605 | 12 | 238 | 3.2 | 8.0 | 0.00 | 0.51 | 0.00 | 89 | 1012.0 |
| 20260510112044 | 12 | 202 | 3.2 | 8.0 | 0.00 | 0.51 | 0.00 | 88 | 1011.9 |
| 20260510111541 | 12 | 209 | 1.6 | 8.0 | 0.00 | 0.51 | 0.00 | 88 | 1011.8 |
| 20260510111058 | 12 | 201 | 1.6 | 11.3 | 0.00 | 0.51 | 0.00 | 88 | 1011.7 |
| 20260510110555 | 12 | 236 | 3.2 | 11.3 | 0.00 | 0.51 | 0.00 | 88 | 1011.7 |
| 20260510110029 | 12 | 239 | 6.4 | 8.0 | 0.00 | 0.51 | 0.00 | 88 | 1011.7 |
| 20260510105550 | 12 | 245 | 4.8 | 6.4 | 0.00 | 0.51 | 0.00 | 87 | 1011.5 |
| 20260510105028 | 12 | 250 | 1.6 | 8.0 | 0.00 | 0.51 | 0.00 | 87 | 1011.3 |
| 20260510104601 | 12 | 243 | 3.2 | 8.0 | 0.00 | 0.51 | 0.00 | 87 | 1011.3 |
| 20260510104045 | 12 | 203 | 3.2 | 9.7 | 0.00 | 0.51 | 0.00 | 87 | 1011.1 |
| 20260510103539 | 12 | 160 | 6.4 | 11.3 | 0.00 | 0.51 | 0.00 | 87 | 1011.1 |
| 20260510103035 | 12 | 151 | 4.8 | 11.3 | 0.00 | 0.51 | 0.00 | 87 | 1011.2 |
| 20260510102525 | 12 | 150 | 6.4 | 12.9 | 0.00 | 0.51 | 0.00 | 87 | 1011.1 |
| 20260510102036 | 12 | 144 | 6.4 | 12.9 | 0.00 | 0.51 | 0.00 | 87 | 1011.1 |
| 20260510101530 | 12 | 157 | 8.0 | 14.5 | 0.00 | 0.51 | 0.00 | 87 | 1010.9 |
| 20260510101026 | 12 | 142 | 8.0 | 16.1 | 0.00 | 0.51 | 0.00 | 87 | 1010.9 |
| 20260510100543 | 12 | 163 | 8.0 | 17.7 | 0.00 | 0.51 | 0.00 | 87 | 1010.8 |
| 20260510100043 | 12 | 132 | 11.3 | 17.7 | 0.00 | 0.51 | 0.00 | 87 | 1010.7 |
| 20260510095601 | 12 | 155 | 12.9 | 17.7 | 0.00 | 0.51 | 0.00 | 87 | 1010.7 |
| 20260510095042 | 12 | 164 | 11.3 | 14.5 | 0.00 | 0.51 | 0.00 | 88 | 1010.8 |
| 20260510094600 | 12 | 144 | 8.0 | 14.5 | 0.00 | 0.51 | 0.00 | 88 | 1010.8 |
| 20260510094102 | 12 | 150 | 11.3 | 14.5 | 0.00 | 0.51 | 0.00 | 88 | 1010.7 |
| 20260510093600 | 12 | 132 | 6.4 | 11.3 | 0.00 | 0.51 | 0.00 | 89 | 1010.8 |
| 20260510093034 | 12 | 137 | 3.2 | 4.8 | 0.00 | 0.51 | 0.00 | 89 | 1010.9 |
| 20260510092525 | 12 | 107 | 3.2 | 4.8 | 0.00 | 0.51 | 0.00 | 89 | 1010.9 |
| 20260510092043 | 12 | 107 | 1.6 | 4.8 | 0.00 | 0.51 | 0.00 | 89 | 1010.9 |
| 20260510091532 | 12 | 107 | 1.6 | 6.4 | 0.00 | 0.51 | 0.00 | 89 | 1011.0 |
| 20260510091026 | 12 | 107 | 3.2 | 9.7 | 0.00 | 0.51 | 0.00 | 89 | 1011.0 |
| 20260510090543 | 12 | 78 | 3.2 | 9.7 | 0.00 | 0.51 | 0.00 | 89 | 1011.1 |
| 20260510090043 | 12 | 69 | 3.2 | 9.7 | 0.00 | 0.51 | 0.00 | 89 | 1011.2 |
| 20260510085600 | 12 | 83 | 6.4 | 9.7 | 0.00 | 0.51 | 0.00 | 89 | 1011.2 |
| 20260510085037 | 11 | 56 | 3.2 | 8.0 | 0.00 | 0.51 | 0.00 | 89 | 1011.3 |
| 20260510084553 | 11 | 48 | 3.2 | 14.5 | 0.00 | 0.51 | 0.00 | 89 | 1011.4 |
| 20260510084050 | 11 | 331 | 9.7 | 14.5 | 0.00 | 0.51 | 0.00 | 90 | 1011.7 |
| 20260510083525 | 11 | 341 | 4.8 | 19.3 | 0.00 | 0.51 | 0.00 | 90 | 1011.6 |
| 20260510083043 | 11 | 335 | 11.3 | 19.3 | 0.00 | 0.51 | 0.00 | 90 | 1011.5 |
| 20260510082542 | 11 | 326 | 12.9 | 20.9 | 0.00 | 0.51 | 0.00 | 90 | 1011.3 |
| 20260510082101 | 11 | 314 | 16.1 | 20.9 | 0.00 | 0.51 | 0.00 | 90 | 1011.1 |
| 20260510081531 | 11 | 252 | 3.2 | 6.4 | 0.00 | 0.51 | 0.00 | 90 | 1010.1 |
| 20260510081025 | 11 | 252 | 3.2 | 6.4 | 0.00 | 0.51 | 0.00 | 89 | 1010.0 |
| 20260510080541 | 11 | 252 | 4.8 | 6.4 | 0.00 | 0.51 | 0.00 | 89 | 1010.0 |
| 20260510080043 | 11 | 150 | 1.6 | 3.2 | 0.00 | 0.51 | 0.00 | 89 | 1009.8 |
| 20260510075542 | 11 | 150 | 1.6 | 4.8 | 0.00 | 0.51 | 0.00 | 89 | 1009.7 |
| 20260510075104 | 11 | 150 | 1.6 | 9.7 | 0.00 | 0.51 | 0.00 | 89 | 1009.7 |
| 20260510074540 | 11 | 150 | 3.2 | 12.9 | 0.00 | 0.51 | 0.00 | 89 | 1009.8 |
| 20260510074036 | 11 | 142 | 3.2 | 12.9 | 0.00 | 0.51 | 0.00 | 89 | 1009.7 |
| 20260510073552 | 11 | 142 | 6.4 | 11.3 | 0.00 | 0.51 | 0.00 | 90 | 1009.8 |
| 20260510073026 | 11 | 140 | 4.8 | 8.0 | 0.00 | 0.51 | 0.00 | 90 | 1009.9 |
| 20260510072542 | 11 | 144 | 6.4 | 8.0 | 0.00 | 0.51 | 0.00 | 90 | 1009.9 |
| 20260510072042 | 11 | 149 | 4.8 | 12.9 | 0.00 | 0.51 | 0.00 | 91 | 1009.8 |
| 20260510071538 | 11 | 144 | 8.0 | 12.9 | 0.00 | 0.51 | 0.00 | 91 | 1009.8 |
| 20260510071036 | 11 | 135 | 4.8 | 8.0 | 0.00 | 0.51 | 0.00 | 91 | 1009.7 |
| 20260510070529 | 11 | 124 | 3.2 | 4.8 | 0.00 | 0.51 | 0.00 | 91 | 1009.8 |
| 20260510070031 | 11 | 124 | 3.2 | 4.8 | 0.00 | 0.51 | 0.00 | 92 | 1009.9 |
| 20260510065546 | 11 | 124 | 3.2 | 4.8 | 0.00 | 0.51 | 0.00 | 91 | 1009.9 |
| 20260510065102 | 11 | 52 | 3.2 | 4.8 | 0.00 | 0.51 | 0.00 | 91 | 1010.0 |
| 20260510064542 | 11 | 52 | 3.2 | 4.8 | 0.00 | 0.51 | 0.00 | 91 | 1010.1 |
| 20260510064039 | 11 | 52 | 1.6 | 4.8 | 0.00 | 0.51 | 0.00 | 91 | 1010.1 |
| 20260510063531 | 11 | 52 | 1.6 | 4.8 | 0.00 | 0.51 | 0.00 | 91 | 1010.3 |
| 20260510063026 | 11 | 52 | 3.2 | 8.0 | 0.00 | 0.51 | 0.00 | 91 | 1010.5 |
| 20260510062542 | 11 | 42 | 3.2 | 8.0 | 0.00 | 0.51 | 0.00 | 91 | 1010.6 |
| 20260510062034 | 11 | 51 | 4.8 | 11.3 | 0.00 | 0.51 | 0.00 | 91 | 1010.5 |
| 20260510061526 | 11 | 30 | 4.8 | 11.3 | 0.00 | 0.51 | 0.00 | 91 | 1010.7 |
| 20260510061045 | 11 | 55 | 4.8 | 9.7 | 0.00 | 0.51 | 0.00 | 92 | 1010.7 |
| 20260510060543 | 11 | 51 | 3.2 | 8.0 | 0.00 | 0.51 | 0.00 | 92 | 1010.9 |
| 20260510055531 | 11 | 355 | 4.8 | 16.1 | 0.00 | 0.51 | 0.00 | 93 | 1010.9 |
| 20260510055027 | 10 | 50 | 6.4 | 30.6 | 0.00 | 0.51 | 0.00 | 93 | 1010.8 |
| 20260510054543 | 10 | 38 | 14.5 | 30.6 | 0.00 | 0.51 | 0.00 | 91 | 1011.0 |
| 20260510054038 | 10 | 61 | 1.6 | 8.0 | 0.00 | 0.51 | 0.00 | 90 | 1010.4 |
| 20260510053530 | 10 | 61 | 4.8 | 8.0 | 0.00 | 0.51 | 0.00 | 89 | 1010.3 |
| 20260510053026 | 10 | 61 | 4.8 | 6.4 | 0.00 | 0.51 | 0.00 | 88 | 1010.4 |
| 20260510052540 | 10 | 327 | 0.0 | 0.0 | 0.00 | 0.51 | 0.00 | 88 | 1010.5 |
| 20260510052039 | 10 | 327 | 0.0 | 0.0 | 0.00 | 0.51 | 0.00 | 88 | 1010.5 |
| 20260510051536 | 10 | 327 | 0.0 | 0.0 | 0.00 | 0.51 | 0.00 | 89 | 1010.3 |
| 20260510051031 | 10 | 327 | 0.0 | 1.6 | 0.00 | 0.51 | 0.00 | 89 | 1010.3 |
| 20260510050548 | 10 | 327 | 0.0 | 1.6 | 0.00 | 0.51 | 0.00 | 88 | 1010.4 |
| 20260510050104 | 10 | 327 | 0.0 | 0.0 | 0.00 | 0.51 | 0.00 | 89 | 1010.1 |
| 20260510045536 | 10 | 327 | 0.0 | 0.0 | 0.00 | 0.51 | 0.00 | 89 | 1010.1 |
| 20260510045056 | 10 | 327 | 0.0 | 0.0 | 0.00 | 0.51 | 0.00 | 89 | 1010.1 |
| 20260510044527 | 10 | 327 | 0.0 | 0.0 | 0.00 | 0.51 | 0.00 | 89 | 1010.0 |
| 20260510044041 | 10 | 327 | 0.0 | 0.0 | 0.00 | 0.51 | 0.00 | 89 | 1010.1 |
| 20260510043535 | 10 | 327 | 0.0 | 0.0 | 0.00 | 0.51 | 0.00 | 88 | 1010.1 |
| 20260510043026 | 10 | 327 | 0.0 | 0.0 | 0.00 | 0.51 | 0.00 | 88 | 1010.0 |
| 20260510042544 | 10 | 327 | 0.0 | 0.0 | 0.00 | 0.51 | 0.00 | 88 | 1009.9 |
| 20260510042034 | 10 | 327 | 0.0 | 0.0 | 0.00 | 0.51 | 0.00 | 88 | 1009.9 |
| 20260510041525 | 10 | 327 | 0.0 | 0.0 | 0.00 | 0.51 | 0.00 | 88 | 1009.9 |
| 20260510041045 | 10 | 327 | 0.0 | 0.0 | 0.00 | 0.51 | 0.00 | 88 | 1009.9 |
| 20260510040538 | 10 | 327 | 0.0 | 0.0 | 0.00 | 0.51 | 0.00 | 88 | 1009.8 |
| 20260510040057 | 11 | 327 | 0.0 | 0.0 | 0.00 | 0.51 | 0.00 | 88 | 1009.7 |
| 20260510035554 | 11 | 327 | 0.0 | 0.0 | 0.00 | 0.51 | 0.51 | 88 | 1009.7 |
| 20260510035027 | 11 | 327 | 0.0 | 0.0 | 0.00 | 0.51 | 0.51 | 89 | 1009.7 |
| 20260510034602 | 11 | 327 | 0.0 | 0.0 | 0.00 | 0.51 | 0.51 | 88 | 1009.7 |
| 20260510034041 | 11 | 327 | 0.0 | 0.0 | 0.00 | 0.51 | 0.51 | 88 | 1009.7 |
| 20260510033535 | 11 | 327 | 0.0 | 0.0 | 0.00 | 0.51 | 0.51 | 88 | 1009.8 |
| 20260510033055 | 11 | 327 | 0.0 | 0.0 | 0.00 | 0.51 | 0.51 | 88 | 1009.8 |
| 20260510032526 | 11 | 327 | 0.0 | 0.0 | 0.00 | 0.51 | 0.51 | 88 | 1009.9 |
| 20260510032044 | 11 | 327 | 0.0 | 0.0 | 0.00 | 0.51 | 0.51 | 87 | 1009.8 |
| 20260510031541 | 11 | 327 | 0.0 | 0.0 | 0.00 | 0.51 | 0.51 | 87 | 1009.9 |
| 20260510031031 | 11 | 327 | 0.0 | 0.0 | 0.00 | 0.51 | 0.51 | 87 | 1009.9 |
| 20260510030549 | 11 | 327 | 0.0 | 0.0 | 0.00 | 0.51 | 0.51 | 88 | 1009.9 |
| 20260510030050 | 11 | 327 | 0.0 | 0.0 | 0.00 | 0.51 | 0.51 | 88 | 1009.9 |
| 20260510025525 | 11 | 327 | 0.0 | 0.0 | 0.00 | 0.51 | 0.51 | 88 | 1009.9 |
| 20260510025054 | 11 | 327 | 0.0 | 0.0 | 0.00 | 0.51 | 0.51 | 88 | 1010.0 |
| 20260510024529 | 11 | 327 | 0.0 | 0.0 | 0.00 | 0.51 | 0.51 | 88 | 1009.9 |
| 20260510023543 | 11 | 327 | 0.0 | 0.0 | 0.00 | 0.51 | 0.51 | 88 | 1010.0 |
| 20260510023042 | 12 | 327 | 0.0 | 0.0 | 0.00 | 0.51 | 0.51 | 87 | 1009.8 |
| 20260510022540 | 12 | 327 | 0.0 | 0.0 | 0.00 | 0.51 | 0.51 | 87 | 1009.9 |
| 20260510022041 | 12 | 327 | 0.0 | 0.0 | 0.00 | 0.51 | 0.51 | 86 | 1009.9 |
| 20260510021541 | 12 | 327 | 0.0 | 0.0 | 0.00 | 0.51 | 0.51 | 86 | 1009.9 |
| 20260510021101 | 12 | 327 | 0.0 | 0.0 | 0.00 | 0.51 | 0.51 | 86 | 1009.9 |
| 20260510020558 | 12 | 327 | 0.0 | 0.0 | 0.00 | 0.51 | 0.51 | 86 | 1009.8 |
| 20260510020054 | 12 | 327 | 0.0 | 0.0 | 0.00 | 0.51 | 0.51 | 86 | 1009.8 |
| 20260510015527 | 12 | 327 | 0.0 | 0.0 | 0.00 | 0.51 | 0.51 | 86 | 1009.7 |
| 20260510015044 | 12 | 327 | 0.0 | 0.0 | 0.00 | 0.51 | 0.51 | 86 | 1009.6 |
| 20260510014540 | 12 | 327 | 0.0 | 0.0 | 0.00 | 0.51 | 0.51 | 86 | 1009.4 |
| 20260510014057 | 12 | 327 | 0.0 | 0.0 | 0.00 | 0.51 | 0.51 | 85 | 1009.3 |
| 20260510013526 | 13 | 327 | 0.0 | 0.0 | 0.00 | 0.51 | 0.51 | 85 | 1009.2 |
| 20260510013105 | 13 | 327 | 0.0 | 0.0 | 0.00 | 0.51 | 0.51 | 84 | 1009.1 |
| 20260510012535 | 13 | 327 | 0.0 | 0.0 | 0.00 | 0.51 | 0.51 | 84 | 1009.0 |
| 20260510012055 | 13 | 327 | 0.0 | 0.0 | 0.00 | 0.51 | 0.51 | 84 | 1008.9 |
| 20260510011527 | 13 | 327 | 0.0 | 0.0 | 0.00 | 0.51 | 0.51 | 83 | 1009.1 |
| 20260510011104 | 13 | 327 | 0.0 | 0.0 | 0.00 | 0.51 | 0.51 | 83 | 1009.1 |
| 20260510010535 | 13 | 327 | 0.0 | 0.0 | 0.00 | 0.51 | 0.51 | 83 | 1009.0 |
| 20260510010026 | 13 | 327 | 0.0 | 0.0 | 0.00 | 0.51 | 0.51 | 82 | 1008.9 |
| 20260510005543 | 13 | 327 | 0.0 | 0.0 | 0.00 | 0.51 | 0.51 | 82 | 1008.8 |
| 20260510005043 | 13 | 327 | 0.0 | 1.6 | 0.00 | 0.51 | 0.51 | 82 | 1008.7 |
| 20260510004540 | 14 | 327 | 0.0 | 3.2 | 0.00 | 0.51 | 0.51 | 82 | 1008.6 |
| 20260510004040 | 14 | 327 | 1.6 | 3.2 | 0.00 | 0.51 | 0.51 | 81 | 1008.5 |
| 20260510003537 | 14 | 327 | 0.0 | 0.0 | 0.00 | 0.51 | 0.51 | 80 | 1008.4 |
| 20260510003055 | 15 | 327 | 0.0 | 0.0 | 0.00 | 0.51 | 0.51 | 80 | 1008.4 |
| 20260510002527 | 15 | 327 | 0.0 | 0.0 | 0.00 | 0.51 | 0.51 | 80 | 1008.4 |
| 20260510002045 | 15 | 327 | 0.0 | 0.0 | 0.00 | 0.51 | 0.51 | 79 | 1008.5 |
| 20260510001543 | 15 | 327 | 0.0 | 1.6 | 0.00 | 0.51 | 0.51 | 79 | 1008.4 |
| 20260510001044 | 15 | 327 | 0.0 | 3.2 | 0.00 | 0.51 | 0.51 | 78 | 1008.4 |
| 20260510000542 | 15 | 327 | 1.6 | 3.2 | 0.00 | 0.51 | 0.51 | 78 | 1008.4 |
| 20260510000037 | 15 | 327 | 1.6 | 3.2 | 0.00 | 0.51 | 0.51 | 77 | 1008.4 |
| 20260509235529 | 16 | 327 | 0.0 | 0.0 | 0.00 | 0.51 | 0.51 | 76 | 1008.4 |
| 20260509235049 | 16 | 327 | 0.0 | 1.6 | 0.00 | 0.51 | 0.51 | 76 | 1008.3 |
| 20260509234543 | 16 | 327 | 0.0 | 1.6 | 0.00 | 0.51 | 0.51 | 75 | 1008.2 |
| 20260509234037 | 16 | 327 | 1.6 | 1.6 | 0.00 | 0.51 | 0.51 | 76 | 1008.2 |
| 20260509233527 | 16 | 327 | 0.0 | 1.6 | 0.00 | 0.51 | 0.51 | 75 | 1008.1 |
| 20260509233046 | 16 | 327 | 0.0 | 3.2 | 0.00 | 0.51 | 0.51 | 75 | 1008.2 |
| 20260509232601 | 16 | 327 | 1.6 | 4.8 | 0.00 | 0.51 | 0.51 | 75 | 1008.3 |
| 20260509232035 | 16 | 327 | 1.6 | 4.8 | 0.00 | 0.51 | 0.51 | 75 | 1008.1 |
| 20260509231527 | 16 | 327 | 1.6 | 4.8 | 0.00 | 0.51 | 0.51 | 74 | 1008.3 |
| 20260509231044 | 16 | 327 | 3.2 | 6.4 | 0.00 | 0.51 | 0.51 | 74 | 1008.3 |
| 20260509230602 | 16 | 327 | 3.2 | 8.0 | 0.00 | 0.51 | 0.51 | 74 | 1008.4 |
| 20260509230036 | 16 | 316 | 4.8 | 8.0 | 0.00 | 0.51 | 0.51 | 75 | 1008.4 |
| 20260509225528 | 17 | 317 | 3.2 | 6.4 | 0.00 | 0.51 | 0.51 | 74 | 1008.4 |
| 20260509225046 | 17 | 300 | 1.6 | 8.0 | 0.00 | 0.51 | 0.51 | 74 | 1008.4 |
| 20260509224537 | 17 | 295 | 4.8 | 8.0 | 0.00 | 0.51 | 0.51 | 75 | 1008.4 |
| 20260509224059 | 17 | 296 | 4.8 | 6.4 | 0.00 | 0.51 | 0.51 | 75 | 1008.4 |
| 20260509223531 | 16 | 46 | 1.6 | 3.2 | 0.00 | 0.51 | 0.51 | 74 | 1008.4 |
| 20260509223026 | 16 | 46 | 0.0 | 3.2 | 0.00 | 0.51 | 0.51 | 74 | 1008.3 |
| 20260509222536 | 16 | 46 | 0.0 | 4.8 | 0.00 | 0.51 | 0.51 | 74 | 1008.3 |
| 20260509222036 | 16 | 46 | 3.2 | 4.8 | 0.00 | 0.51 | 0.51 | 76 | 1008.3 |
| 20260509221528 | 16 | 46 | 1.6 | 4.8 | 0.00 | 0.51 | 0.51 | 75 | 1008.3 |
| 20260509221044 | 16 | 44 | 1.6 | 4.8 | 0.00 | 0.51 | 0.51 | 74 | 1008.4 |
| 20260509220538 | 16 | 44 | 1.6 | 4.8 | 0.00 | 0.51 | 0.51 | 75 | 1008.4 |
| 20260509220032 | 16 | 14 | 0.0 | 6.4 | 0.00 | 0.51 | 0.51 | 75 | 1008.5 |
| 20260509215524 | 16 | 14 | 3.2 | 6.4 | 0.00 | 0.51 | 0.51 | 76 | 1008.5 |
| 20260509215037 | 16 | 33 | 1.6 | 8.0 | 0.00 | 0.51 | 0.51 | 76 | 1008.5 |
| 20260509214532 | 16 | 360 | 4.8 | 8.0 | 0.00 | 0.51 | 0.51 | 75 | 1008.5 |
| 20260509214027 | 16 | 348 | 6.4 | 8.0 | 0.00 | 0.51 | 0.51 | 75 | 1008.6 |
| 20260509213543 | 16 | 28 | 1.6 | 9.7 | 0.00 | 0.51 | 0.51 | 76 | 1008.6 |
| 20260509213037 | 16 | 21 | 3.2 | 9.7 | 0.00 | 0.51 | 0.51 | 75 | 1008.6 |
| 20260509212526 | 16 | 24 | 3.2 | 8.0 | 0.00 | 0.51 | 0.51 | 75 | 1008.7 |
| 20260509212044 | 16 | 38 | 3.2 | 9.7 | 0.00 | 0.51 | 0.51 | 76 | 1008.6 |
| 20260509211537 | 16 | 9 | 4.8 | 9.7 | 0.00 | 0.51 | 0.51 | 76 | 1008.7 |
| 20260509211034 | 16 | 16 | 3.2 | 8.0 | 0.00 | 0.51 | 0.51 | 77 | 1008.7 |
| 20260509210528 | 16 | 5 | 3.2 | 8.0 | 0.00 | 0.51 | 0.51 | 76 | 1008.8 |
| 20260509210048 | 16 | 360 | 3.2 | 12.9 | 0.00 | 0.51 | 0.51 | 79 | 1008.9 |
| 20260509205544 | 16 | 46 | 4.8 | 12.9 | 0.00 | 0.51 | 0.51 | 78 | 1009.0 |
| 20260509205039 | 16 | 58 | 3.2 | 8.0 | 0.00 | 0.51 | 0.51 | 79 | 1009.0 |
| 20260509204542 | 16 | 13 | 4.8 | 9.7 | 0.00 | 0.51 | 0.51 | 78 | 1009.0 |
| 20260509204043 | 16 | 26 | 3.2 | 14.5 | 0.00 | 0.51 | 0.51 | 78 | 1009.0 |
| 20260509203536 | 16 | 11 | 6.4 | 14.5 | 0.00 | 0.51 | 0.51 | 78 | 1009.2 |
| 20260509203032 | 16 | 351 | 3.2 | 8.0 | 0.00 | 0.51 | 0.51 | 77 | 1009.2 |
| 20260509202525 | 16 | 34 | 1.6 | 8.0 | 0.00 | 0.51 | 0.51 | 76 | 1009.2 |
| 20260509202044 | 16 | 355 | 3.2 | 9.7 | 0.00 | 0.51 | 0.51 | 75 | 1009.2 |
| 20260509201602 | 16 | 321 | 6.4 | 9.7 | 0.00 | 0.51 | 0.51 | 74 | 1009.1 |
| 20260509201037 | 16 | 338 | 4.8 | 12.9 | 0.00 | 0.51 | 0.51 | 75 | 1009.2 |
| 20260509200527 | 16 | 317 | 4.8 | 12.9 | 0.00 | 0.51 | 0.51 | 73 | 1009.2 |
| 20260509200042 | 16 | 332 | 4.8 | 12.9 | 0.00 | 0.51 | 0.51 | 74 | 1009.3 |
| 20260509195541 | 16 | 317 | 4.8 | 9.7 | 0.00 | 0.51 | 0.51 | 74 | 1009.4 |
| 20260509195042 | 16 | 329 | 6.4 | 14.5 | 0.00 | 0.51 | 0.51 | 73 | 1009.3 |
| 20260509194540 | 16 | 328 | 6.4 | 14.5 | 0.00 | 0.51 | 0.51 | 73 | 1009.4 |
| 20260509194101 | 16 | 290 | 6.4 | 14.5 | 0.00 | 0.51 | 0.51 | 71 | 1009.4 |
| 20260509193540 | 17 | 287 | 9.7 | 14.5 | 0.00 | 0.51 | 0.51 | 71 | 1009.5 |
| 20260509193102 | 17 | 287 | 8.0 | 11.3 | 0.00 | 0.51 | 0.51 | 69 | 1009.2 |
| 20260509192536 | 17 | 200 | 3.2 | 4.8 | 0.00 | 0.51 | 0.51 | 69 | 1009.1 |
| 20260509192029 | 17 | 200 | 3.2 | 4.8 | 0.00 | 0.51 | 0.51 | 69 | 1009.0 |
| 20260509191525 | 17 | 128 | 1.6 | 6.4 | 0.00 | 0.51 | 0.51 | 69 | 1009.0 |
| 20260509191101 | 17 | 128 | 1.6 | 6.4 | 0.00 | 0.51 | 0.51 | 70 | 1009.0 |
| 20260509190557 | 17 | 146 | 3.2 | 6.4 | 0.00 | 0.51 | 0.51 | 73 | 1008.9 |
| 20260509190035 | 17 | 289 | 1.6 | 3.2 | 0.00 | 0.51 | 0.51 | 73 | 1008.9 |